Flag for Dominican Republic Weather past 2 weeks in Punta Cana, Dominican Republic

Now
73 °F

Passing clouds.


Feels Like: 72 °F
Forecast: 70 / 85 °F
Wind: No wind

Location: Punta Cana

Current Time: Apr 1, 2015 at 4:52:34 AM

Latest Report: Apr 1, 2015 at 4:00 AM


Visibility: N/A

Pressure: 29.98 "Hg

Humidity: 89%

Dew point: 70 °F

Location of Punta CanaLocation

Historic Weather in Punta Cana — Graph

°F

Punta Cana temperature yesterday

Maximum temperature yesterday: 84 °F (at 1:00 PM)
Minimum temperature yesterday: 72 °F (at 6:00 AM)
Average temperature yesterday: 78 °F

Past Weeks' High & Low Weather Summary

 TemperatureHumidityPressure
High90 °F (Mar 29, 4:00 PM)100% (Mar 22, 7:00 AM)30.15 "Hg (Mar 22, 7:00 AM)
Low64 °F (Mar 22, 7:00 AM)51% (Mar 31, 2:00 PM)29.95 "Hg (Mar 17, 4:00 AM)
Average78 °F77%30.04 "Hg
* Reported Mar 17 4:00 AM — Apr 1 4:00 AM, Punta Cana, Weather by CustomWeather, © 2015

Note: Actual official high and low records may vary slightly from our data, if they occured in-between our weather recording intervals... More about our weather records

Advertising

Punta Cana weather history for previous 24 hours

 ConditionsComfort  
Time TempWeatherWind HumidityBarometerVisibility
4:00 AM
Wed, Apr 1
73 °FPassing clouds.No wind89%29.98 "HgN/A
3:00 AM77 °FPartly cloudy.12 mph74%30.01 "HgN/A
2:00 AM77 °FPassing clouds.5 mph74%30.01 "HgN/A
12:00 AM77 °FPassing clouds.7 mph74%30.04 "HgN/A
11:00 PM
Tue, Mar 31
77 °FPassing clouds.6 mph74%30.07 "HgN/A
10:00 PM77 °FPassing clouds.6 mph74%30.04 "HgN/A
9:00 PM73 °FPassing clouds.5 mph83%30.04 "HgN/A
8:00 PM75 °FPassing clouds.3 mph78%30.01 "HgN/A
7:00 PM77 °FPassing clouds.6 mph69%30.01 "HgN/A
6:00 PM81 °FScattered clouds.6 mph58%29.98 "HgN/A
5:00 PM82 °FPartly sunny.7 mph55%29.98 "HgN/A
4:00 PM82 °FPartly sunny.8 mph51%29.98 "HgN/A
3:00 PM84 °FPartly sunny.6 mph51%29.98 "HgN/A
2:00 PM84 °FPartly sunny.9 mph51%30.01 "HgN/A
1:00 PM84 °FPartly sunny.7 mph55%30.04 "HgN/A
12:00 PM77 °FBroken clouds.6 mph94%30.04 "HgN/A
11:00 AM82 °FScattered clouds.9 mph62%30.07 "HgN/A
10:00 AM82 °FScattered clouds.5 mph62%30.07 "HgN/A
9:00 AM79 °FBroken clouds.6 mph65%30.07 "HgN/A
8:00 AM75 °FScattered clouds.No wind83%30.04 "HgN/A
7:00 AM72 °FPartly sunny.No wind94%30.01 "HgN/A
6:00 AM72 °FPassing clouds.No wind94%30.01 "HgN/A
5:00 AM73 °FPassing clouds.No wind89%29.98 "HgN/A
4:00 AM73 °FPassing clouds.5 mph89%29.98 "HgN/A
Weather by CustomWeather, © 2015

See weather overviewHow to use our weather pages